Location: Darlington Observatory
(36.4817°N, 105.8156°W)
Time: 07:52:30
(UTC-06:00)

Daily predictions for brighter satellites

Satellite Brightness Start Highest point End
(mag) Time Altitude Azimuth Time Altitude Azimuth Time Altitude Azimuth
NOSS 3-2 (A) 3.6 19:06:22 10° SSW 19:12:11 56° ESE 19:18:28 10° NE
Cosmos 2297 4.2 19:08:27 10° N 19:13:48 40° ENE 19:19:03 10° SE
Cosmos 1707 2.7 19:11:35 10° N 19:15:26 71° E 19:19:15 10° SSE
USA 238 DEB 4.5 19:10:54 10° SW 19:17:50 59° NW 19:24:48 10° NNE
USA 238 4.5 19:10:59 10° SW 19:17:56 59° NW 19:24:54 10° NNE
Cosmos 1812 Rocket 4.2 19:13:40 10° SSW 19:17:57 61° W 19:22:15 10° N
CZ-4C R/B 3.3 19:13:33 10° SW 19:18:38 47° NW 19:24:18 10° NNE
SAR-Lupe-4 3.8 19:15:28 10° SSE 19:18:54 47° ENE 19:22:22 10° N
Meteor 2-5 Rocket 3.8 19:14:15 10° N 19:19:53 86° W 19:25:25 10° S
Meteor 1-24 Rocket 3.8 19:14:36 10° N 19:20:07 52° ENE 19:25:23 10° SSE
FREGAT/IRIS 3.7 19:17:56 10° SE 19:20:35 27° ENE 19:23:15 10° NNE
SJ-6B 3.2 19:17:53 10° SE 19:21:37 44° ENE 19:25:29 10° N
Cosmos 1437 2.8 19:21:41 10° N 19:24:55 60° E 19:28:08 10° SSE
Cosmos 921 Rocket 4.2 19:22:20 10° NNW 19:26:22 46° W 19:30:20 10° S
Cosmos 1464 Rocket 4.1 19:24:12 10° SSE 19:30:13 51° E 19:36:12 10° NNE
Cosmos 1758 4.4 19:27:26 10° SE 19:30:47 25° E 19:34:10 10° NE
TIMED 4.5 19:30:23 10° NNW 19:34:45 70° ENE 19:39:05 10° SSE
GPS 2-04 Rocket1 4.1 19:36:38 10° SSW 19:39:12 19° SSE 19:41:01 14° ESE
Cosmos 2333 Rocket 4.2 19:35:26 10° WSW 19:40:30 31° WNW 19:45:36 10° N
Spot 2 Rocket 3.8 19:36:24 10° SE 19:41:11 46° ENE 19:45:59 10° N
Cosmos 1076 Rocket 3.8 19:37:32 10° N 19:41:40 43° E 19:45:49 10° SSE
Helios 1B rocket 2.6 19:39:55 10° NNE 19:43:54 48° E 19:47:53 10° S
Cosmos 1484 Rocket 4.1 19:40:25 10° S 19:44:02 44° W 19:47:46 10° NNW
Cosmos-2242 3.7 19:40:15 10° SSE 19:44:08 33° E 19:48:05 10° NNE
ASTEX 1 4.4 19:42:25 10° NE 19:46:19 23° E 19:50:10 10° SE
SL-8 R/B 4.4 19:42:13 10° SSW 19:46:30 34° SE 19:49:42 16° ENE
Cosmos 2056 Rocket 3.6 19:42:11 10° NNW 19:47:39 88° WSW 19:53:04 10° SSE
CENTAUR R/B 3.6 19:45:41 10° SSE 19:49:48 20° ESE 19:53:12 13° ENE
NOSS 3-2 (C) 3.4 19:43:48 10° SSW 19:49:48 85° ESE 19:56:20 10° NNE
NOAA 12 4.2 19:51:06 10° S 19:56:20 82° WSW 20:01:38 10° NNW
ASTRO E2 3.5 19:52:34 10° WSW 19:56:22 40° S 19:58:31 22° ESE
In-Cosmos 22 4.3 19:51:36 10° N 19:57:19 57° E 20:02:56 10° SSE
Cosmos 1408 Rocket 3.5 19:55:31 10° N 19:59:51 62° E 20:04:06 10° SSE
Abrixas 3.2 19:59:09 10° SSW 20:01:53 33° SE 20:02:07 32° SE
Atlas Centaur 2 3.8 19:54:47 10° W 20:02:48 45° SSW 20:08:50 16° SE
Aureole 2 Rocket 4.3 19:58:43 10° SW 20:02:55 43° WNW 20:07:03 10° N
Meteor 1-21 Rocket 4.4 19:58:05 10° N 20:03:26 46° ENE 20:08:42 10° SSE
Cosmos 1766 4.3 20:00:19 10° SSW 20:04:08 48° W 20:07:59 10° N
HJ-1C 3.3 20:02:04 10° SSE 20:05:25 88° ENE 20:08:47 10° N
ATLAS CENTAUR R/B 2.6 20:02:18 10° NW 20:06:08 38° WSW 20:09:41 10° S
Resurs 01 Rocket 1.6 20:04:21 10° SSE 20:08:48 87° ENE 20:13:16 10° NNW
Resurs 1-3 3.5 20:05:53 10° SSE 20:10:13 69° ENE 20:14:36 10° N
ATLAS 5 CENTAUR R/B 2.0 20:09:03 10° SW 20:13:45 71° WNW 20:18:51 10° NNE
CZ-2D R/B 3.6 20:18:24 41° E 20:18:49 43° ENE 20:22:31 10° N
Elektron 1 4.5 20:16:12 10° SSW 20:18:25 36° SSE 20:18:25 36° SSE
Meteor 1-29 3.4 20:16:16 10° N 20:19:46 65° WNW 20:23:12 10° SSW
ISS -1.6 20:20:45 10° SSW 20:22:15 22° S 20:22:15 22° S
Cosmos 1953 2.7 20:21:27 10° SSW 20:25:24 63° W 20:29:22 10° N
SL-16 R/B 3.8 20:20:18 10° SW 20:25:29 36° WNW 20:30:42 10° N
BREEZE-M TANK 3.9 20:20:34 10° WNW 20:27:25 37° SW 20:29:14 21° S
USA 215 3.9 20:21:08 10° NE 20:27:29 56° NW 20:33:49 10° WSW
Cosmos 1743 Rocket 3.5 20:23:06 10° N 20:27:30 59° E 20:28:38 43° SE
Gbstr 26 Del rocket 3.8 20:27:46 10° SSW 20:31:12 37° SSE 20:31:12 37° SSE
Helios 1A 3.7 20:28:13 10° S 20:32:17 53° W 20:36:24 10° NNW
ERS-1 Rocket 4.4 20:34:55 22° NE 20:34:55 22° NE 20:37:32 10° NNE
ATLAS CENTAUR R/B 4.4 20:28:28 10° WSW 20:33:40 55° NNW 20:50:04 10° NE
Cosmos 1805 4.4 20:32:10 10° SSW 20:35:55 45° W 20:39:44 10° N
H-2A R/B 2.6 20:36:26 73° E 20:36:32 74° ENE 20:40:26 10° N
Cosmos 1544 3.4 20:34:15 10° SSW 20:37:56 65° W 20:41:40 10° N
OAO 1 Rocket 4.4 20:33:17 10° W 20:38:39 76° S 20:39:52 53° ESE
CZ-4B DEB 3.1 20:39:33 64° WNW 20:39:33 64° WNW 20:42:30 10° NNW
SeaSat 1 2.3 20:35:34 10° NNE 20:40:30 70° ESE 20:45:24 10° SSW
GP-B 4.3 20:36:28 10° NNE 20:38:50 28° NE 20:38:50 28° NE
Nadezhda 4 Rocket 3.9 20:36:41 10° N 20:42:59 88° E 20:48:44 12° S
Cosmos 1452 Rocket 3.9 20:39:06 10° NNW 20:44:18 63° WSW 20:47:54 20° S
ALOS 2.5 20:42:51 22° S 20:45:48 70° WSW 20:50:27 10° NNW
Cosmos 1092 Rocket 3.8 20:42:50 10° N 20:49:03 71° E 20:51:19 41° SSE
Cosmos 2142 Rocket 4.5 20:47:13 31° SSE 20:50:16 59° E 20:56:33 10° NNE
SEDSat Delta rocket 4.2 20:44:17 10° W 20:50:54 57° S 20:52:20 48° SE
OAO 3 Rocket 3.1 20:46:19 10° W 20:51:06 75° S 20:51:10 75° S
FENGYUN 3A 3.9 20:48:13 17° S 20:52:19 68° W 20:57:42 10° NNW
Cosmos 1634 Rocket 3.8 20:54:26 10° S 21:00:41 77° E 21:06:54 10° N
Cosmos 2026 Rocket 4.4 20:58:39 10° N 21:03:21 45° NE 21:03:21 45° NE
Cosmos 1420 Rocket 4.1 21:02:03 10° NNW 21:07:20 72° WSW 21:07:54 66° SSW
Cosmos 1943 3.8 21:03:42 10° SSW 21:14:49 11° NNE 21:14:59 10° NNE
Cosmos 2369 Rocket 2.8 21:06:28 10° NNW 21:10:43 45° NNE 21:10:43 45° NNE
Cosmos 1943 Rocket 4.0 21:14:37 10° N 21:16:46 19° NNE 21:16:46 19° NNE
Cosmos 2195 Rocket 4.5 21:19:51 10° N 21:25:41 77° N 21:25:41 77° N
CENTAUR R/B 2.9 21:33:44 10° SW 21:39:39 61° NW 21:40:44 53° NNW
Atlas Centaur 2 4.5 21:45:49 10° WSW 21:51:29 21° SSW 21:51:29 21° SSW
